Location: Sternwarte ZA, Rosenfeld-Brittheim
(48.2889°N, 8.6789°E)
Time: 07:26:25
(UTC+02:00)

ISS - Pass Details

Date: 22 May 2021
Orbit: 417 x 422 km, 51.6° (Epoch: 18 June)

Event Time Altitude Azimuth Distance (km) Brightness Sun altitude
Rises 01:20:28 0° 292° (WNW) 2,372 0.4 -21.3°
Reaches altitude 10° 01:22:36 10° 287° (WNW) 1,506 -0.8 -21.3°
Enters shadow 01:23:56 21° 279° (W) 993 -1.8 -21.3°
